Location: Goodfare
(55.2420°N, 119.7689°W)
Time: 06:25:49
(UTC+00:00)

N. Korean satellite - Visible Passes

Search period start: 27 November 2021 00:00
Search period end: 07 December 2021 00:00
Orbit: 447 x 495 km, 97.3° (Epoch: 26 November)

Date Brightness Start Highest point End Pass type
(mag) Time Alt. Az. Time Alt. Az. Time Alt. Az.
27 Nov 9.9 01:37:07 10° WSW 01:38:50 13° W 01:40:33 10° WNW visible
27 Nov 8.3 12:52:46 10° NNE 12:55:54 31° E 12:58:58 10° SSE visible
27 Nov 7.4 14:26:07 10° N 14:29:02 26° WNW 14:31:55 10° WSW visible
28 Nov 9.2 01:07:12 10° SSW 01:10:07 23° W 01:13:03 10° NW visible
28 Nov 9.4 12:24:54 10° NE 12:27:13 17° E 12:29:31 10° SE visible
28 Nov 6.5 13:57:22 10° N 14:00:42 49° WNW 14:04:00 10° SW visible
29 Nov 7.9 00:38:05 10° S 00:41:31 44° W 00:44:56 10° NNW visible
29 Nov 6.4 13:28:50 10° NNE 13:32:17 80° ESE 13:35:40 10° SSW visible
29 Nov 8.2 15:03:18 10° NNW 15:04:58 13° WNW 15:06:39 10° W visible
30 Nov 10.1 01:45:53 10° W 01:46:46 11° W 01:47:37 10° WNW visible
30 Nov 7.9 13:00:30 10° NNE 13:03:44 38° E 13:06:55 10° SSE visible
30 Nov 7.6 14:34:03 10° N 14:36:46 22° WNW 14:39:28 10° WSW visible
01 Dec 9.5 01:15:20 10° SW 01:18:00 20° W 01:20:38 10° NW visible
01 Dec 9.1 12:32:28 10° NE 12:35:04 20° E 12:37:38 10° SE visible
01 Dec 6.8 14:05:13 10° N 14:08:27 41° WNW 14:11:39 10° SW visible
02 Dec 8.3 00:46:02 10° SSW 00:49:19 36° W 00:52:37 10° NNW visible
02 Dec 9.9 12:05:29 10° ENE 12:06:17 11° E 12:07:04 10° E visible
02 Dec 6.2 13:36:36 10° NNE 13:40:02 84° WNW 13:43:25 10° SSW visible
02 Dec 8.4 15:11:30 10° NW 15:12:38 11° NW 15:13:45 10° WNW visible
03 Dec 6.8 00:17:14 10° S 00:20:46 75° WSW 00:24:16 10° NNW visible
03 Dec 7.4 13:08:10 10° NNE 13:11:29 46° E 13:14:46 10° S visible
03 Dec 7.8 14:41:56 10° NNW 14:44:26 19° WNW 14:46:54 10° WSW visible
04 Dec 9.6 01:23:28 10° SW 01:25:47 17° W 01:28:06 10° NW visible
04 Dec 8.8 12:40:01 10° NE 12:42:50 23° E 12:45:37 10° SSE visible
04 Dec 7.0 14:12:59 10° N 14:16:07 34° WNW 14:19:12 10° SW visible
05 Dec 8.6 00:53:55 10° SSW 00:57:04 30° W 01:00:12 10° NNW visible
05 Dec 9.7 12:12:28 10° ENE 12:14:03 13° E 12:15:37 10° ESE visible
05 Dec 6.2 13:44:18 10° N 13:47:41 69° WNW 13:51:04 10° SSW visible
06 Dec 7.1 00:24:58 10° S 00:28:27 61° WSW 00:31:54 10° NNW visible
06 Dec 7.0 13:15:47 10° NNE 13:19:10 57° ESE 13:22:30 10° S visible
06 Dec 8.0 14:49:47 10° NNW 14:52:01 17° WNW 14:54:14 10° W visible
